When you browse on this site, cookies collect data to enhance your experience and personalize the content and advertising you see.
Visit our Privacy Policy to learn more. By continuing to use the site, you agree to this use of cookies and data.
  • In Czech Republic
  • List of Countries
  • For 7 days
  • Water Temperature
  • Weather Map
  • Weather Widgets
  • user-avatar
    Login

    Hourly Weather Tarasovichi

    Today, 3 June, Wednesday

    Time Temperature Precipitation Wind Pressure Humidity
    00:00 +7°C° 0 mm 3 mps 740 mmHg 96%
    01:00 +6°C° 0 mm 2 mps 740 mmHg 96%
    02:00 +6°C° 0 mm 2 mps 740 mmHg 96%
    03:00 +6°C° 0 mm 2 mps 740 mmHg 97%
    04:00 +5°C° 0 mm 3 mps 740 mmHg 97%
    05:00 +5°C° 0 mm 3 mps 739 mmHg 97%
    06:00 +8°C° 0 mm 3 mps 740 mmHg 93%
    07:00 +8°C° 0 mm 4 mps 740 mmHg 90%
    08:00 +11°C° 0 mm 4 mps 740 mmHg 86%
    09:00 +12°C° 0.6 mm 5 mps 740 mmHg 84%
    10:00 +12°C° 0.6 mm 5 mps 739 mmHg 82%
    11:00 +13°C° 0.6 mm 5 mps 739 mmHg 80%
    12:00 +13°C° 0.4 mm 5 mps 739 mmHg 78%
    13:00 +14°C° 0.4 mm 5 mps 739 mmHg 75%
    14:00 +14°C° 0.4 mm 4 mps 739 mmHg 73%
    15:00 +14°C° 0.2 mm 4 mps 739 mmHg 73%
    16:00 +14°C° 0.2 mm 4 mps 739 mmHg 73%
    17:00 +14°C° 0.2 mm 4 mps 738 mmHg 72%
    18:00 +13°C° 0.2 mm 4 mps 738 mmHg 79%
    19:00 +12°C° 0.2 mm 3 mps 738 mmHg 85%
    20:00 +12°C° 0.2 mm 2 mps 738 mmHg 91%
    21:00 +10°C° 0 mm 2 mps 738 mmHg 93%
    22:00 +9°C° 0 mm 3 mps 738 mmHg 94%
    23:00 +9°C° 0 mm 3 mps 738 mmHg 96%

    Tomorrow, 4 June, Thursday

    Time Temperature Precipitation Wind Pressure Humidity
    00:00 +8°C° 0 mm 2 mps 738 mmHg 96%
    01:00 +8°C° 0 mm 2 mps 738 mmHg 97%
    02:00 +7°C° 0 mm 2 mps 738 mmHg 97%
    03:00 +7°C° 0 mm 2 mps 738 mmHg 98%
    04:00 +7°C° 0 mm 2 mps 737 mmHg 98%
    05:00 +7°C° 0 mm 2 mps 737 mmHg 98%
    06:00 +9°C° 0 mm 2 mps 737 mmHg 94%
    07:00 +10°C° 0 mm 2 mps 738 mmHg 90%
    08:00 +12°C° 0 mm 3 mps 738 mmHg 86%
    09:00 +13°C° 0.3 mm 3 mps 738 mmHg 81%
    10:00 +14°C° 0.3 mm 4 mps 737 mmHg 77%
    11:00 +15°C° 0.3 mm 4 mps 737 mmHg 72%
    12:00 +15°C° 0.5 mm 4 mps 737 mmHg 72%
    13:00 +15°C° 0.5 mm 4 mps 737 mmHg 71%
    14:00 +15°C° 0.5 mm 4 mps 737 mmHg 71%
    15:00 +15°C° 0.7 mm 4 mps 737 mmHg 75%
    16:00 +15°C° 0.7 mm 4 mps 737 mmHg 78%
    17:00 +15°C° 0.7 mm 4 mps 737 mmHg 82%
    18:00 +14°C° 0.2 mm 3 mps 737 mmHg 86%
    19:00 +12°C° 0.2 mm 3 mps 737 mmHg 89%
    20:00 +12°C° 0.2 mm 2 mps 737 mmHg 93%
    21:00 +12°C° 0.1 mm 2 mps 737 mmHg 94%
    22:00 +10°C° 0.1 mm 2 mps 737 mmHg 95%
    23:00 +9°C° 0.1 mm 2 mps 737 mmHg 96%

    Day after tomorrow, 5 June, Friday

    Time Temperature Precipitation Wind Pressure Humidity
    00:00 +9°C° 0 mm 2 mps 737 mmHg 96%
    01:00 +8°C° 0 mm 2 mps 737 mmHg 96%
    02:00 +8°C° 0 mm 2 mps 737 mmHg 96%
    03:00 +8°C° 0 mm 2 mps 737 mmHg 97%
    04:00 +9°C° 0 mm 2 mps 737 mmHg 97%
    05:00 +9°C° 0 mm 2 mps 737 mmHg 97%
    06:00 +12°C° 0 mm 2 mps 737 mmHg 93%
    07:00 +13°C° 0 mm 3 mps 738 mmHg 90%
    08:00 +14°C° 0 mm 3 mps 738 mmHg 86%
    09:00 +17°C° 0.1 mm 4 mps 738 mmHg 81%
    10:00 +19°C° 0.1 mm 4 mps 738 mmHg 76%
    11:00 +20°C° 0.1 mm 5 mps 738 mmHg 71%
    12:00 +19°C° 0.5 mm 5 mps 738 mmHg 77%
    13:00 +17°C° 0.5 mm 5 mps 738 mmHg 83%
    14:00 +16°C° 0.5 mm 6 mps 738 mmHg 90%
    15:00 +16°C° 0.3 mm 5 mps 738 mmHg 91%
    16:00 +16°C° 0.3 mm 5 mps 738 mmHg 93%
    17:00 +17°C° 0.3 mm 4 mps 738 mmHg 95%
    18:00 +17°C° 0.2 mm 4 mps 738 mmHg 95%
    19:00 +17°C° 0.2 mm 4 mps 738 mmHg 94%
    20:00 +17°C° 0.2 mm 4 mps 738 mmHg 94%
    21:00 +17°C° 0.5 mm 4 mps 738 mmHg 95%
    22:00 +17°C° 0.5 mm 4 mps 738 mmHg 95%
    23:00 +17°C° 0.5 mm 4 mps 738 mmHg 95%

    6 June, Saturday

    Time Temperature Precipitation Wind Pressure Humidity
    00:00 +16°C° 0 mm 3 mps 738 mmHg 95%
    01:00 +16°C° 0 mm 3 mps 738 mmHg 95%
    02:00 +16°C° 0 mm 3 mps 738 mmHg 95%
    03:00 +16°C° 0 mm 3 mps 738 mmHg 95%
    04:00 +16°C° 0 mm 3 mps 738 mmHg 95%
    05:00 +16°C° 0 mm 3 mps 738 mmHg 95%
    06:00 +15°C° 0 mm 4 mps 739 mmHg 95%
    07:00 +17°C° 0 mm 4 mps 740 mmHg 94%
    08:00 +17°C° 0 mm 4 mps 740 mmHg 93%
    09:00 +18°C° 0.1 mm 4 mps 741 mmHg 85%
    10:00 +19°C° 0.1 mm 4 mps 742 mmHg 78%
    11:00 +20°C° 0.1 mm 4 mps 742 mmHg 70%
    12:00 +21°C° 0 mm 4 mps 743 mmHg 66%
    13:00 +22°C° 0 mm 4 mps 743 mmHg 62%
    14:00 +23°C° 0 mm 4 mps 743 mmHg 58%
    15:00 +22°C° 0 mm 4 mps 744 mmHg 59%
    16:00 +22°C° 0 mm 4 mps 744 mmHg 61%
    17:00 +22°C° 0 mm 4 mps 744 mmHg 63%
    18:00 +20°C° 0 mm 3 mps 744 mmHg 70%
    19:00 +19°C° 0 mm 2 mps 745 mmHg 77%
    20:00 +18°C° 0 mm 1 mps 745 mmHg 84%
    21:00 +16°C° 0 mm 1 mps 746 mmHg 86%
    22:00 +15°C° 0 mm 1 mps 746 mmHg 89%
    23:00 +14°C° 0 mm 1 mps 747 mmHg 91%

    7 June, Sunday

    Time Temperature Precipitation Wind Pressure Humidity
    00:00 +14°C° 0 mm 1 mps 747 mmHg 91%
    01:00 +14°C° 0 mm 1 mps 747 mmHg 91%
    02:00 +14°C° 0 mm 1 mps 747 mmHg 92%
    03:00 +14°C° 0 mm 1 mps 747 mmHg 91%
    04:00 +14°C° 0 mm 1 mps 748 mmHg 91%
    05:00 +14°C° 0 mm 1 mps 748 mmHg 91%
    06:00 +16°C° 0 mm 2 mps 748 mmHg 86%
    07:00 +18°C° 0 mm 2 mps 748 mmHg 80%
    08:00 +19°C° 0 mm 3 mps 748 mmHg 75%
    09:00 +21°C° 0 mm 3 mps 748 mmHg 73%
    10:00 +22°C° 0 mm 4 mps 748 mmHg 70%
    11:00 +23°C° 0 mm 4 mps 747 mmHg 67%
    12:00 +25°C° 0.4 mm 5 mps 747 mmHg 67%
    13:00 +26°C° 0.4 mm 5 mps 746 mmHg 67%
    14:00 +26°C° 0.4 mm 5 mps 746 mmHg 66%
    15:00 +26°C° 0.9 mm 4 mps 745 mmHg 71%
    16:00 +25°C° 0.9 mm 4 mps 745 mmHg 76%
    17:00 +25°C° 0.9 mm 3 mps 745 mmHg 81%
    18:00 +22°C° 1.7 mm 4 mps 745 mmHg 83%
    19:00 +21°C° 1.7 mm 4 mps 744 mmHg 85%
    20:00 +19°C° 1.7 mm 4 mps 744 mmHg 88%
    21:00 +19°C° 0 mm 4 mps 744 mmHg 89%
    22:00 +18°C° 0 mm 3 mps 744 mmHg 90%
    23:00 +17°C° 0 mm 3 mps 744 mmHg 92%

    8 June, Monday

    Time Temperature Precipitation Wind Pressure Humidity
    00:00 +17°C° 0.2 mm 3 mps 744 mmHg 93%
    01:00 +17°C° 0.2 mm 3 mps 744 mmHg 94%
    02:00 +16°C° 0.2 mm 3 mps 744 mmHg 96%
    03:00 +16°C° 0 mm 3 mps 744 mmHg 96%
    04:00 +17°C° 0 mm 3 mps 744 mmHg 97%
    05:00 +17°C° 0 mm 3 mps 744 mmHg 97%
    06:00 +18°C° 0 mm 3 mps 745 mmHg 94%
    07:00 +19°C° 0 mm 3 mps 745 mmHg 91%
    08:00 +21°C° 0 mm 3 mps 745 mmHg 87%
    09:00 +22°C° 0 mm 3 mps 745 mmHg 82%
    10:00 +24°C° 0 mm 3 mps 746 mmHg 76%
    11:00 +25°C° 0 mm 3 mps 746 mmHg 70%
    12:00 +26°C° 0.1 mm 4 mps 746 mmHg 66%
    13:00 +27°C° 0.1 mm 4 mps 746 mmHg 61%
    14:00 +28°C° 0.1 mm 4 mps 746 mmHg 57%
    15:00 +27°C° 0.2 mm 4 mps 745 mmHg 60%
    16:00 +27°C° 0.2 mm 4 mps 745 mmHg 63%
    17:00 +27°C° 0.2 mm 3 mps 745 mmHg 66%
    18:00 +26°C° 0.1 mm 3 mps 745 mmHg 73%
    19:00 +24°C° 0.1 mm 3 mps 745 mmHg 80%
    20:00 +21°C° 0.1 mm 2 mps 745 mmHg 87%
    21:00 +20°C° 0 mm 2 mps 745 mmHg 89%
    22:00 +20°C° 0 mm 2 mps 746 mmHg 92%
    23:00 +19°C° 0 mm 2 mps 746 mmHg 95%
    Show more